Imperial, NE

11:13 PM MST on January 16, 2017 (GMT -0700)
Imperial Municipal

Weather History for KIML - November, 2010

Change the Weather History Date:

Friday, November 5, 2010

  Actual Average Record
Temperature  
Mean Temperature 45 °F 42 °F  
Max Temperature 68 °F 56 °F 82 °F (1915)
Min Temperature 22 °F 29 °F 7 °F (1967)
Degree Days  
Heating Degree Days 20 23  
Month to date heating degree days 85 109  
Cooling Degree Days 0 0  
Month to date cooling degree days 0 0  
Year to date cooling degree days 1172 963  
Moisture  
Dew Point 18 °F    
Average Humidity 42    
Maximum Humidity 68    
Minimum Humidity 15    
Precipitation  
Precipitation 0.00 in 0.03 in 0.52 in (2013)
Sea Level Pressure  
Sea Level Pressure 30.18 in    
Wind  
Wind Speed 7 mph (South)    
Max Wind Speed 16 mph    
Max Gust Speed 20 mph    
Visibility 9 miles    
Events      
T = Trace of Precipitation, MM = Missing Value Source: NWS Daily Summary

Daily Weather History Graph

Daily Weather History Graph

Search for Another Location

Airport or City:

Trip Planner

Search our weather history database for the weather conditions in past years. The results will help you decide how hot, cold, wet, or windy it might be!

Date:

Astronomy

Nov. 05, 2010 Rise Set
Actual Time 7:21 AM MDT 5:38 PM MDT
Civil Twilight 6:52 AM MDT 6:07 PM MDT
Nautical Twilight 6:20 AM MDT 6:39 PM MDT
Astronomical Twilight 5:48 AM MDT 7:11 PM MDT
Moon 6:48 AM MDT (11/5) 5:02 PM MDT (11/5)
Length of Visible Light 11h 14m
Length of Day
10h 17m
Waning Crescent, 0% of the Moon is Illuminated
Nov 5
Waning Crescent
Nov 5
New
Nov 13
First Quarter
Nov 21
Full
Nov 28
Last Quarter

Hourly Weather History & Observations

Time (MDT) Temp. Windchill Dew Point Humidity Pressure Visibility Wind Dir Wind Speed Gust Speed Precip Events Conditions
12:53 AM 25.0 °F 18.1 °F 12.9 °F 60% 30.33 in 6.0 mi WSW 5.8 mph - N/A   Haze
1:53 AM 26.1 °F - 12.9 °F 58% 30.31 in 6.0 mi Calm Calm - N/A   Haze
2:53 AM 25.0 °F 20.7 °F 14.0 °F 63% 30.30 in 7.0 mi WSW 3.5 mph - N/A   Clear
3:53 AM 26.1 °F - 12.0 °F 55% 30.28 in 7.0 mi Calm Calm - N/A   Clear
4:53 AM 25.0 °F 19.3 °F 12.0 °F 58% 30.27 in 6.0 mi WSW 4.6 mph - N/A   Haze
5:53 AM 21.9 °F 17.2 °F 12.0 °F 66% 30.30 in 10.0 mi WSW 3.5 mph - N/A   Clear
6:53 AM 23.0 °F 17.0 °F 10.9 °F 60% 30.28 in 10.0 mi WSW 4.6 mph - N/A   Clear
7:53 AM 24.1 °F - 15.1 °F 69% 30.30 in 9.0 mi Calm Calm - N/A   Clear
8:53 AM 34.0 °F 29.8 °F 17.1 °F 50% 30.28 in 10.0 mi SSE 4.6 mph - N/A   Clear
9:53 AM 45.0 °F 40.1 °F 16.0 °F 31% 30.25 in 10.0 mi South 9.2 mph - N/A   Clear
10:53 AM 52.0 °F - 14.0 °F 22% 30.22 in 10.0 mi South 12.7 mph - N/A   Clear
11:53 AM 57.0 °F - 18.0 °F 22% 30.19 in 10.0 mi South 15.0 mph - N/A   Clear
12:53 PM 61.0 °F - 19.0 °F 20% 30.15 in 10.0 mi South 11.5 mph - N/A   Clear
1:53 PM 64.9 °F - 19.0 °F 17% 30.11 in 10.0 mi SSE 12.7 mph - N/A   Clear
2:53 PM 66.9 °F - 19.9 °F 17% 30.08 in 10.0 mi South 9.2 mph - N/A   Clear
3:53 PM 68.0 °F - 19.0 °F 15% 30.06 in 10.0 mi South 9.2 mph - N/A   Clear
4:53 PM 64.9 °F - 21.9 °F 19% 30.06 in 10.0 mi SSE 6.9 mph - N/A   Clear
5:53 PM 52.0 °F - 23.0 °F 32% 30.09 in 10.0 mi SE 6.9 mph - N/A   Clear
6:53 PM 44.1 °F 38.6 °F 23.0 °F 43% 30.11 in 10.0 mi SE 10.4 mph - N/A   Clear
7:53 PM 43.0 °F 38.2 °F 24.1 °F 47% 30.11 in 10.0 mi SE 8.1 mph - N/A   Clear
8:53 PM 42.1 °F 37.7 °F 23.0 °F 47% 30.10 in 10.0 mi South 6.9 mph - N/A   Clear
9:53 PM 46.0 °F 42.5 °F 24.1 °F 42% 30.06 in 10.0 mi South 6.9 mph - N/A   Clear
10:53 PM 48.0 °F - 24.1 °F 39% 30.05 in 10.0 mi South 9.2 mph - N/A   Clear
11:53 PM 45.0 °F 41.2 °F 25.0 °F 46% 30.04 in 10.0 mi SSW 6.9 mph - N/A   Clear